Regional Weather Roundup
Issued by NWS

Home | Current Version | Previous Version | Graphics & Text | Print | Product List | Glossary On
Versions: 1 2 3 4 5 6 7 8 9 10 11 12 13 14 15 16 17 18 19 20 21 22 23 24 25 26 27 28 29 30 31 32 33 34 35 36 37 38 39 40 41 42 43 44 45 46 47 48 49 50
000
ASUS43 KBIS 100602
RWRND

NORTH DAKOTA REGIONAL WEATHER ROUNDUP
NATIONAL WEATHER SERVICE BISMARCK ND
1200 AM CST WED FEB 10 2016

NOTE: "FAIR" INDICATES FEW OR NO CLOUDS BELOW 12,000 FEET WITH NO
SIGNIFICANT WEATHER AND/OR OBSTRUCTIONS TO VISIBILITY.


NDZ001>003-009>011-017-100700-
NORTHWEST NORTH DAKOTA

CITY           SKY/WX    TMP DP  RH WIND       PRES   REMARKS
WILLISTON      PTCLDY    29  24  82 S3        29.92F
6HR MIN TEMP:  26; 6HR MAX TEMP:  36;

MINOT          LGT SNOW  20  13  74 E12       30.00F VSB 1   WCI   8
$$

NDZ018>021-031>035-040>046-100700-
SOUTHWEST NORTH DAKOTA

CITY           SKY/WX    TMP DP  RH WIND       PRES   REMARKS
BISMARCK       CLOUDY    31  21  66 E12       30.01F
6HR MIN TEMP:  31; 6HR MAX TEMP:  39;

DICKINSON      CLEAR     30  22  72 S3        29.90F
GARRISON         N/A     25  20  81 E13       29.98F WCI  14
6HR MIN TEMP:  25; 6HR MAX TEMP:  34;

HETTINGER ARPT CLOUDY    25  19  78 CALM      29.96F
$$

NDZ004>008-012>016-024-026-027-054-100700-
NORTHEAST NORTH DAKOTA

CITY           SKY/WX    TMP DP  RH WIND       PRES   REMARKS
GRAND FORKS    CLOUDY     5  -2  72 NE9       30.21F WCI  -9
GRND FRKS AFB  CLOUDY     3  -3  74 NE6       30.20F WCI  -8
DEVILS LAKE    LGT SNOW   8   4  83 SE10      30.12F FOG     WCI  -6
$$

NDZ022-023-025-028>030-036>039-047>053-100700-
SOUTHEAST NORTH DAKOTA

CITY           SKY/WX    TMP DP  RH WIND       PRES   REMARKS
FARGO          CLOUDY     4  -3  73 NE9       30.20F WCI -10
6HR MIN TEMP:   4; 6HR MAX TEMP:  13;

JAMESTOWN      CLOUDY    12   5  73 E12       30.10F WCI  -2
$$




USA.gov is the U.S. government's official web portal to all federal, state and local government web resources and services.